FENGYUN 1C DEB

Satellite information

Favourite Embed

Satellite Type and Status

DEBRISIN ORBIT

Key statistics

Satellite FENGYUN 1C DEB at a glance.

Uptime

9661

Days in orbit

Revolutions

≈ 14.2

Per day

Orbit

SSO

Sun Synchronous Orbit

Inclination

99.6

Latest

Satellite identification and parameters

Extended collection of information and parameters for FENGYUN 1C DEB.

Object identification

Identified? True

Debris? True

Object name: FENGYUN 1C DEB

International designator: 1999-025DXA

Object number (NORAD): 36273

Object ID (CCSDS): 36273

Country: PEOPLES REPUBLIC OF CHINA (PRC)

Current information (Y/N): Y

RCS size: SMALL

Orbital parameters

Period: 101.661 minutes

Inclination: 99.6112 deg

SMA: 7215.45 km

Apoapsis: 907.21 km

Periapsis: 767.42 km

RAAN: 153.7504 deg

Eccentricy: 0.00968685

Argument of periapsis: 148.9601 deg

Mean anomaly: 211.7344 deg

Mean motion: 14.16470927 rev/day

Mean motion (dot): 0.00000697 rev/day2

B* drag term: 0.00035888956 1/REarth

Two-line elements (TLE)

Creation date: Oct. 16, 2025, 2:37 a.m.

Reference frame: TEME

Reference center: EARTH

Epoch: Oct. 15, 2025, 8:48 p.m. UTC

TLE line 0: 0 FENGYUN 1C DEB

TLE line 1: 1 36273U 99025DXA 25288.86696199 .00000697 00000-0 35889-3 0 9993

TLE line 2: 2 36273 99.6112 153.7504 0096869 148.9601 211.7344 14.16470927654146

Live tracking on map

Real-time ground track for satellite FENGYUN 1C DEB.

In-orbit conjunctions

A list of the most updated potential collisions computed for object FENGYUN 1C DEB.

Target Orbit TCA Probability of collision Miss distance Type
COSMOS 494 LEO 2025-07-16 11:21:29 0.0001176607 417.0 (m) PAYLOAD
COSMOS 1174 LEO 2025-03-04 22:42:49 0.0002673356 381.0 (m) PAYLOAD
FENGYUN 1C DEB SSO 2024-12-27 17:48:47 0.0002688019 55.0 (m) DEBRIS

Associated space launch

Chinese polar orbiting meteorological satellite

FENGYUN 1C DEB was lifted into orbit during the mission ‘Long March 4B | Feng Yun 1C’, on board a Long March 4B space rocket.

The launch took place on May 10, 1999, 1:33 a.m. from Launch Complex 7.

For more information about the launch, click the button.

Launch to space Long March 4B | Feng Yun 1C
Long March 4B | Feng Yun 1C

Agency: N/A

Status: Launch Successful

Launch date: May 10, 1999, 1:33 a.m. UTC

Rocket: Long March 4B

Launch pad: Launch Complex 7

Location: Taiyuan Satellite Launch Center, People's Republic of China

...

Latest news about this satellite

There are no fresh news available about this satellite. Check back as we update our databases every day.


Newsletter sign-up

Weekly statistics, charts and insights to help you stay on top of the space industry.